Starlink 34069

operational
NORAD ID: 64920 Int'l Des: 2025-157 Owner: SPXS Country: US Constellation: starlink
LEOCIRCULAR

About Starlink 34069

Description loading...

Live Position

Loading 3D Globe...

Upcoming Passes

Altitude History

Altitude vs Time

uPlot chart will show altitude changes over time

Two-Line Element Set

1 64920U 25157S 26063.09291020 .00061107 00000-0 20587-2 0 9990
2 64920 53.1608 11.8965 0001039 105.1805 254.9311 15.30195421 35261
Epoch: Mar 4, 2026 • Age: 18 hours

Current Status

Altitude 488.1 km
Velocity 7.62 km/s
Sub-Earth Point -38.34°S, 94.96°W
Launch Date Jul 26, 2025
Age 0.6 years
Type internet

Technical Details

Classification Payload
Mass 575.00 kg
Dry Mass 530.00 kg
Total Mass 575.00 kg
Length 0.30 m
Diameter 4.10 m
Span 29.00 m
Shape Box + pan
Manufacturer SPXS
Bus Type Starlink V2MO
Phase Status In Orbit
Owner/State SPXS/US

Large Constellations

Loading constellations...